Regional Weather Roundup
Issued by NWS Charleston, SC

Current Version | Previous Version | Text Only | Print | Product List | Glossary Off
Versions: 1 2 3 4 5 6 7 8 9 10 11 12 13 14 15 16 17 18 19 20 21 22 23 24 25 26 27 28 29 30 31 32 33 34 35 36 37 38 39 40 41 42 43 44 45 46 47 48 49 50
000 ASUS42 KCHS 231910 RWRCHS REGIONAL WEATHER ROUNDUP NATIONAL WEATHER SERVICE CHARLESTON SC 200 PM EST SUN NOV 23 2014 NOTE: "FAIR" INDICATES FEW OR NO CLOUDS BELOW 12,000 FEET WITH NO SIGNIFICANT WEATHER AND/OR OBSTRUCTIONS TO VISIBILITY. NOT ALL STATIONS ARE QUALITY CONTROLLED BY THE NATIONAL WEATHER SERVICE. USE DATA WITH CAUTION...ESPECIALLY DEWPOINT OBSERVATIONS. SCZ027-030-031-034>040-042>050-232000- ...SOUTHEAST SOUTH CAROLINA... CITY SKY/WX TMP DP RH WIND PRES REMARKS N CHARLESTON LGT RAIN 66 64 93 SE13 29.96F FOG WATERFRONT PRK N/A 61 N/A N/A E12 N/A MOUNT PLEASANT CLOUDY 64 64 100 SE7 29.96F JOHNS ISLAND DRZL/FOG 64 64 100 E12G17 29.96F VSB 1 PINOPOLIS N/A 66 63 88 E7 29.88F MONCKS CORNER LGT RAIN 66 66 100 SE8 29.96F SUMMERVILLE DRIZZLE 64 64 100 E8 29.96F BEAUFORT MCAS LGT RAIN 66 65 96 SE10 29.92F FOG BEAUFORT ARPT DRIZZLE 66 66 100 E8G16 29.92F HILTON HEAD IS LGT RAIN 64 64 100 SE6 29.93F WALTERBORO DRIZZLE 66 N/A N/A E13 29.93F ALLENDALE MOCLDY 64 64 100 SE10G17 29.89F FOG ...SOUTHERN MIDLANDS AND PEE DEE... CITY SKY/WX TMP DP RH WIND PRES REMARKS GEORGETOWN NOT AVBL KINGSTREE NOT AVBL ORANGEBURG RAIN 63 61 93 SE15G22 29.92F FOG BARNWELL DRIZZLE 63 63 100 SE8 29.91F AIKEN RAIN 59 59 100 E8 29.94F MANNING NOT AVBL COLUMBIA LGT RAIN 58 57 97 E6 29.93F FOG SUMTER LGT RAIN 62 62 100 E14G20 29.94F FLORENCE LGT RAIN 62 59 90 SE9 29.99F MYRTLE BEACH LGT RAIN 64 61 88 SE12 30.00F N MYRTLE BEACH CLOUDY 63 61 93 E13G21 29.99F $$ GAZ063-065-086>088-099>101-113>116-118-119-134>141-150-232000- ...SOUTHEAST GEORGIA... CITY SKY/WX TMP DP RH WIND PRES REMARKS SAVANNAH ARPT CLOUDY 70 66 88 SE8 29.90F FOG HUNTER AAF CLOUDY 68 68 100 SE7 29.88F FORT STEWART CLOUDY 70 68 95 SE7 29.87F STATESBORO NOT AVBL SYLVANIA DRIZZLE 65 65 97 SE10 29.90F CLAXTON CLOUDY 68 68 100 SE5 29.88F ...CSRA...CENTRAL AND FAR SOUTHEAST GEORGIA... CITY SKY/WX TMP DP RH WIND PRES REMARKS THOMSON CLOUDY 61 61 100 E6 29.91F AUGUSTA-BUSH LGT RAIN 60 59 96 SE8 29.89F FOG AUGUSTA-DANIEL LGT RAIN 60 59 96 E10 29.90F SWAINSBORO CLOUDY N/A N/A N/A E8 29.86F HAZE VIDALIA CLOUDY 64 64 100 E6 29.85F FOG HAZLEHURST CLOUDY 72 72 100 SE3 29.82F ALMA CLOUDY 73 69 87 SE8 29.83F WAYCROSS CLOUDY 76 74 92 SE5 29.84F JESUP CLOUDY 73 72 94 SE7 29.87F BAXLEY CLOUDY 73 72 94 S8 29.84F BRUNSWICK CLOUDY 73 70 88 SE5 29.89F SAINT SIMONS CLOUDY 67 67 100 SE7 29.89F $$ SCZ027-028-034-036>038-045-046-048>050-GAZ119-141-232000- ...LAKE AND SUPPLEMENTAL COASTAL OBSERVATIONS... STATION/POSITION TIME TEMP WIND PRES WAVE SWELL AIR SEA DIR/SP/G HT/PER HT/PER/DIR (UTC) (F) (DEG/KT/KT) (MB) (FT/S) (FT/S/D) UPR LAKE MARION NOT AVBL WINYAH BAY 1800 61 110/ 8 1017.0F LAKE MURRAY 1800 56 80/ 11/ 15 1013.5F ACE BASIN NERRS 1800 64 120/ 5 1015.0S FORT PULASKI 1900 64 90/ 11/ 12 1012.8F SAPELO ISLAND NOT AVBL $$ ANZ835-935-AMZ111-154-330-350-352-354-370-450-454-472-232000- ...C-MAN AND BUOY OBSERVATIONS... STATION/POSITION TIME TEMP WIND PRES WAVE SWELL AIR SEA DIR/SP/G HT/PER HT/PER/DIR (UTC) (F) (DEG/KT/KT) (MB) (FT/S) (FT/S/D) FOLLY BEACH CMAN 1800 62 100/ 15/ 17 1015.9F BUOY 41004 1900 71 75 110/ 29/ 35 1013.2F 10/ 8 2/15 BUOY 41008 1900 67 64 160/ 4/ 6 1012.9F 7/ 8 7/110/ 8 CAPERS NEARSHORE 1800 62 100/ 16/ 19 N/A FRIPP NEARSHORE NOT AVBL STATION/POSITION TIME TEMP WIND PRES WAVE SWELL AIR SEA DIR/SP/G HT/PER HT/PER/DIR (UTC) (F) (DEG/KT/KT) (MB) (FT/S) (FT/S/D) 5E ST. MARYS GA 1900 61 N/A 6/ 8 2/120/11 FRYING PAN BUOY 1900 67 66 130/ 25/ 31 1016.7F 8/ 7 BUOY 41025 1900 70 150/ 16/ 17 1021.2F 3/ 4 2/110/ 9 CAPE LOOKOUT NC 1800 63 140/ 14/ 15 1020.8F BUOY 41002 1803 71 73 140/ 19/ 21 1021.3F 5/ 5 2/110/10 BUOY 41010 1900 79 78 160/ 21/ 25 1014.8F 10/ 9 7/130/ 9 ST AUGUSTINE FL 1900 79 200/ 12/ 14 1012.0F $$

USA.gov is the U.S. government's official web portal to all federal, state and local government web resources and services.